Location: Gajan
(43.0218°N, 1.1244°E)
Time: 07:16:11
(UTC+00:00)

Envisat - Visible Passes

Search period start: 18 September 2021 00:00
Search period end: 28 September 2021 00:00
Orbit: 764 x 766 km, 98.2° (Epoch: 17 September)

Date Brightness Start Highest point End Pass type
(mag) Time Alt. Az. Time Alt. Az. Time Alt. Az.
18 Sep 3.5 04:59:57 10° NNE 05:05:01 68° ESE 05:10:04 10° S visible
19 Sep 5.0 04:23:32 10° NNE 04:28:02 31° E 04:32:29 10° SSE visible
20 Sep 6.0 03:48:11 10° ENE 03:50:49 14° E 03:53:27 10° ESE visible
21 Sep 3.9 04:48:31 10° NNE 04:53:30 53° E 04:58:26 10° S visible
22 Sep 5.4 04:12:19 10° NE 04:16:26 24° E 04:20:31 10° SSE visible
23 Sep 6.2 03:38:00 10° ENE 03:39:10 11° E 03:40:20 10° E visible
23 Sep 3.1 05:13:45 10° NNE 05:18:51 89° WNW 05:23:56 10° SSW visible
24 Sep 4.4 04:37:07 10° NNE 04:41:56 42° E 04:46:43 10° SSE visible
25 Sep 5.7 04:01:12 10° NE 04:04:49 19° E 04:08:25 10° SE visible
26 Sep 3.3 05:02:15 10° NNE 05:07:21 73° ESE 05:12:25 10° S visible
27 Sep 4.8 04:25:47 10° NNE 04:30:22 33° E 04:34:55 10° SSE visible
